Location: Étouvelles
(49.5207°N, 3.5808°E)
Time: 23:01:37
(UTC+00:00)

Cosmos 540 Rocket - Pass Details

Date: 22 September 2023
Orbit: 737 x 752 km, 74.1° (Epoch: 03 December)

Event Time Altitude Azimuth Distance (km) Brightness Sun altitude
Rises 23:20:19 0° 330° (NNW) 3,183 7.4 -40.2°
Reaches altitude 10° 23:22:51 10° 321° (NW) 2,256 6.4 -40.3°
Enters shadow 23:23:15 12° 319° (NW) 2,115 6.2 -40.3°
